Location: Ostrava
(49.8330°N, 18.2830°E)
Time: 05:55:59
(UTC+02:00)

Cosmos 1263 Rocket - Visible Passes

Search period start: 25 April 2014 00:00
Search period end: 05 May 2014 00:00
Orbit: 326 x 630 km, 82.9° (Epoch: 24 April)

Date Brightness Start Highest point End Pass type
(mag) Time Alt. Az. Time Alt. Az. Time Alt. Az.
25 Apr 2.1 21:25:20 10° S 21:28:56 73° E 21:33:01 10° NNE visible
25 Apr 5.2 23:02:43 10° W 23:04:30 13° WNW 23:06:21 10° NW visible
26 Apr 2.6 20:58:41 10° SSE 21:02:15 44° E 21:06:11 10° NNE visible
26 Apr 4.9 22:34:39 10° WSW 22:37:27 19° WNW 22:40:27 10° NNW visible
27 Apr 3.3 20:32:16 10° SSE 20:35:34 28° E 20:39:08 10° NNE visible
27 Apr 4.3 22:07:03 10° SW 22:10:25 28° WNW 22:14:04 10° N visible
28 Apr 3.5 21:39:40 10° SSW 21:43:22 44° WNW 21:47:26 10° N visible
29 Apr 2.6 21:12:28 10° SSW 21:16:21 71° W 21:20:37 10° N visible
30 Apr 2.3 20:45:25 10° S 20:49:20 72° E 20:53:37 10° NNE visible
30 Apr 5.4 22:22:37 10° W 22:24:51 14° WNW 22:27:10 10° NNW visible
01 May 5.1 21:54:22 10° WSW 21:57:29 21° WNW 22:00:47 10° NNW visible
02 May 4.4 21:26:30 10° SW 21:30:08 31° WNW 21:34:02 10° N visible
03 May 3.6 20:58:50 10° SSW 21:02:48 48° WNW 21:07:04 10° N visible
04 May 6.0 22:10:15 10° WNW 22:11:14 11° WNW 22:12:13 10° NW visible
